Location: Biltmore Gardens
(41.6070°N, 83.4666°W)
Time: 21:29:49
(UTC+00:00)

N. Korean satellite - Pass Details

Date: 09 March 2021
Orbit: 452 x 499 km, 97.2° (Epoch: 15 April)

Event Time Altitude Azimuth Distance (km) Brightness Sun altitude
Rises 10:34:40 0° 19° (NNE) 2,548 10.6 -15.9°
Reaches altitude 10° 10:36:49 10° 27° (NNE) 1,672 9.8 -15.5°
Maximum altitude 10:40:13 40° 98° (E) 733 8.0 -14.8°
Drops below altitude 10° 10:43:39 10° 170° (S) 1,681 9.3 -14.2°
Sets 10:45:48 0° 177° (S) 2,564 10.2 -13.8°
